Weather in Malaya Tsarevshchina

Russia / Samara Oblast     53°26′49″N   50°10′39″E
temp.,
°C
wind,
m/s
gust,
m/s
humid.,
%
clouds,
%
prec.,
mm/h
press.,
hPa
HPBL,
m
28 february, sun
sun2801:00−12nnw6119399 0.2 1000385
04:00−13nnw7119399 0.4 1002406
07:00−16nw61193100 0.1 1004384
10:00−15nw71193100 0.3 1006390
13:00−13nw6992100 0.1 1008451
16:00−13nw6992100 0.2 1010505
19:00−14nw4994100 0.2 1012376
22:00−14nnw499498 0.4 1014384
1 march, mon
mon101:00−17nw369589 0.1 1016139
04:00−20nw349776 0.1 101879
07:00−22nw339766 0.0 101968
10:00−18nnw479362 0.0 1022278
13:00−15nw359174 0.0 1022374
16:00−14nw469077 0.0 1022390
19:00−19w229521 0.0 102220
22:00−19sw129710 0.0 102220
2 march, tue
tue201:00−18ssw239733 0.0 102029
04:00−15ssw489667 0.0 1016194
07:00−12ssw51292100 0.0 1013361
10:00−9sw71391100 0.2 1009471
13:00−3sw71392100 0.5 1006669
16:000sw71294100 0.9 1004769
19:000wsw4998100 0.4 1002551
22:00−2w3795100 0.6 1003200
3 march, wed
wed301:00−5w349527 0.0 100268
04:00−8w349521 0.0 100358
07:00−8wnw349685 0.0 100367
10:00−5wnw479486 0.1 1005321
13:00−3wnw479295 0.1 1005458
16:00−3nw589089 0.1 1006621
19:00−5nw389294 0.0 1007302
22:00−11wnw339269 0.0 101026
4 march, thu
thu401:00−11wnw47950 0.0 1010114
04:00−12w369535 0.0 101097
07:00−13sw239429 0.0 101030
10:00−8sw389016 0.0 1010269
13:00−5sw7129125 0.0 1007625
16:00−3sw8148863 0.1 1005881
19:00−1sw91687100 0.1 1002995
22:000wsw81686100 0.2 10011088